STARLINK-1128 (44931 NORAD) Tracking and Keplerian Element Data

This shows tracking and keplerian element data for the satellite.

Feedback or suggestion? Click here.




ElementValue
Catalog44931
NameSTARLINK-1128
Epoch Orbit720
Epoch Day48.58334491
Epoch Year2020
RAAN196.859
Inclination52.9998
Eccentricity0.0001651
Argument of Perigee51.7341
Mean Anonmoly80.9475
Mean Motion15.15119133
Decay Rate0.00200069
L11 44931U 20001T 20048.58334491 .00200069 00000-0 10279-1 0 9992
L22 44931 52.9998 196.8590 0001651 51.7341 80.9475 15.15119133 7209

Live tracking and technical data element details for STARLINK-1128 (NORAD 44931). STARLINK-1128 can be tracked NOW for your location showing map with azimuth and elevation plus other details from your city location.

Track the satellite on the map from your city or location and see movement details for azimuth, elevation, latitude, longitude, range, height, and movement on the map or in text.







IsCatalogInMostPopularTable: catalog: 44931, numindb: 8
Update: records affected: 1



GetName: 44931 STARLINK-1128

Hit Count: updated at: Tue, 18 Feb 2020 00:10:07 GMT